EA7RX-13 Weather Reports


Display with metric or nautical units.
time (UTC)temp
F
wind
direction
speed
MPH
gust
MPH
rain 1hr
in
rain 24hr
in
rain mn
in
humidity
%
barometer
mb
20260906072634 80 0.0 0.0 0.00 0.00 0.00 55 1020.0
20260906071634 79 0.0 0.0 0.00 0.00 0.00 54 1019.9
20260906070634 79 0.0 0.0 0.00 0.00 0.00 50 1019.8
20260906065634 79 0.0 0.0 0.00 0.00 0.00 53 1019.7
20260906064634 78 0.0 0.0 0.00 0.00 0.00 50 1019.8
20260906063634 77 0.0 0.0 0.00 0.00 0.00 53 1019.7
20260906062634 78 0.0 0.0 0.00 0.00 0.00 50 1019.6
20260906061634 77 0.0 0.0 0.00 0.00 0.00 50 1019.6
20260906060634 77 0.0 0.0 0.00 0.00 0.00 50 1019.4
20260906055634 77 0.0 0.0 0.00 0.00 0.00 50 1019.3
20260906054634 78 0.0 0.0 0.00 0.00 0.00 48 1019.2
20260906053634 77 0.0 0.0 0.00 0.00 0.00 49 1019.1
20260906052634 78 0.0 0.0 0.00 0.00 0.00 49 1019.0
20260906051634 78 0.0 0.0 0.00 0.00 0.00 48 1018.9
20260906050634 79 0.0 0.0 0.00 0.00 0.00 46 1018.9
20260906045634 79 0.0 0.0 0.00 0.00 0.00 47 1018.8
20260906044634 78 0.0 0.0 0.00 0.00 0.00 50 1018.9
20260906043634 78 0.0 0.0 0.00 0.00 0.00 52 1018.9
20260906042633 78 0.0 0.0 0.00 0.00 0.00 50 1018.7
20260906041634 78 0.0 0.0 0.00 0.00 0.00 51 1018.9
20260906040634 79 0.0 0.0 0.00 0.00 0.00 52 1018.7
20260906035633 79 0.0 0.0 0.00 0.00 0.00 51 1018.7
20260906034634 80 0.0 0.0 0.00 0.00 0.00 47 1018.7
20260906033634 80 0.0 0.0 0.00 0.00 0.00 46 1018.6
20260906032633 81 0.0 0.0 0.00 0.00 0.00 46 1018.6
20260906031634 80 0.0 0.0 0.00 0.00 0.00 47 1018.6
20260906030633 82 0.0 0.0 0.00 0.00 0.00 46 1018.3
20260906025633 81 0.0 0.0 0.00 0.00 0.00 45 1018.5
20260906024633 82 0.0 0.0 0.00 0.00 0.00 43 1018.5
20260906023633 82 0.0 0.0 0.00 0.00 0.00 42 1018.5
20260906022633 83 0.0 0.0 0.00 0.00 0.00 41 1018.4
20260906021634 83 0.0 0.0 0.00 0.00 0.00 42 1018.3
20260906020633 84 0.0 0.0 0.00 0.00 0.00 41 1018.1
20260906015633 84 0.0 0.0 0.00 0.00 0.00 42 1018.1
20260906014633 85 0.0 0.0 0.00 0.00 0.00 38 1017.9
20260906013633 86 0.0 0.0 0.00 0.00 0.00 37 1017.9
20260906012633 86 0.0 0.0 0.00 0.00 0.00 37 1017.9
20260906011633 86 0.0 0.0 0.00 0.00 0.00 37 1017.9
20260906010633 86 0.0 0.0 0.00 0.00 0.00 37 1018.0
20260906005633 85 0.0 0.0 0.00 0.00 0.00 38 1018.0
20260906004633 87 0.0 0.0 0.00 0.00 0.00 36 1017.8
20260906003633 87 0.0 0.0 0.00 0.00 0.00 34 1017.9
20260906002633 87 0.0 0.0 0.00 0.00 0.00 35 1017.7
20260906001633 86 0.0 0.0 0.00 0.00 0.00 38 1017.9
20260906000633 87 0.0 0.0 0.00 0.00 0.00 38 1017.9
20260905235633 86 0.0 0.0 0.00 0.00 0.00 40 1018.0
20260905234633 87 0.0 0.0 0.00 0.00 0.00 38 1018.0
20260905233633 86 0.0 0.0 0.00 0.00 0.00 40 1018.0
20260905232633 87 0.0 0.0 0.00 0.00 0.00 40 1018.0
20260905231633 87 0.0 0.0 0.00 0.00 0.00 42 1018.1
20260905230633 85 0.0 0.0 0.00 0.00 0.00 43 1018.1
20260905225633 85 0.0 0.0 0.00 0.00 0.00 43 1018.1
20260905224633 85 0.0 0.0 0.00 0.00 0.00 44 1018.2
20260905223633 85 0.0 0.0 0.00 0.00 0.00 44 1018.2
20260905222633 85 0.0 0.0 0.00 0.00 0.00 45 1018.3
20260905221633 85 0.0 0.0 0.00 0.00 0.00 43 1018.2
20260905220633 85 0.0 0.0 0.00 0.00 0.00 44 1018.1
20260905215633 85 0.0 0.0 0.00 0.00 0.00 45 1018.0
20260905214633 86 0.0 0.0 0.00 0.00 0.00 45 1018.1
20260905213633 85 0.0 0.0 0.00 0.00 0.00 48 1018.1
20260905212633 85 0.0 0.0 0.00 0.00 0.00 48 1018.1
20260905211633 86 0.0 0.0 0.00 0.00 0.00 46 1018.0
20260905210633 86 0.0 0.0 0.00 0.00 0.00 45 1018.1
20260905205633 86 0.0 0.0 0.00 0.00 0.00 46 1018.1
20260905204633 87 0.0 0.0 0.00 0.00 0.00 45 1018.0
20260905203633 87 0.0 0.0 0.00 0.00 0.00 45 1017.9
20260905202633 87 0.0 0.0 0.00 0.00 0.00 46 1017.9
20260905201633 87 0.0 0.0 0.00 0.00 0.00 45 1017.8
20260905200633 87 0.0 0.0 0.00 0.00 0.00 44 1017.7
20260905195633 87 0.0 0.0 0.00 0.00 0.00 45 1017.6
20260905194633 88 0.0 0.0 0.00 0.00 0.00 44 1017.3
20260905193633 87 0.0 0.0 0.00 0.00 0.00 45 1017.3
20260905192633 88 0.0 0.0 0.00 0.00 0.00 43 1017.1
20260905191633 88 0.0 0.0 0.00 0.00 0.00 43 1017.0
20260905190633 90 0.0 0.0 0.00 0.00 0.00 38 1016.6
20260905185633 91 0.0 0.0 0.00 0.00 0.00 38 1016.4
20260905184633 92 0.0 0.0 0.00 0.00 0.00 37 1016.2
20260905183633 93 0.0 0.0 0.00 0.00 0.00 36 1016.0
20260905182633 93 0.0 0.0 0.00 0.00 0.00 35 1015.9
20260905181633 94 0.0 0.0 0.00 0.00 0.00 34 1015.7
20260905180633 95 0.0 0.0 0.00 0.00 0.00 34 1015.7
20260905175633 95 0.0 0.0 0.00 0.00 0.00 33 1015.5
20260905174633 96 0.0 0.0 0.00 0.00 0.00 32 1015.5
20260905173633 97 0.0 0.0 0.00 0.00 0.00 32 1015.3
20260905172633 98 0.0 0.0 0.00 0.00 0.00 32 1015.2
20260905171633 102 0.0 0.0 0.00 0.00 0.00 29 1014.8
20260905170633 102 0.0 0.0 0.00 0.00 0.00 29 1014.6
20260905165633 102 0.0 0.0 0.00 0.00 0.00 30 1014.6
20260905164633 101 0.0 0.0 0.00 0.00 0.00 36 1014.7
20260905163633 101 0.0 0.0 0.00 0.00 0.00 29 1014.6
20260905162633 102 0.0 0.0 0.00 0.00 0.00 28 1014.5
20260905161633 103 0.0 0.0 0.00 0.00 0.00 27 1014.5
20260905160633 102 0.0 0.0 0.00 0.00 0.00 28 1014.6
20260905155633 103 0.0 0.0 0.00 0.00 0.00 27 1014.6
20260905154633 102 0.0 0.0 0.00 0.00 0.00 29 1014.6
20260905153633 104 0.0 0.0 0.00 0.00 0.00 28 1014.5
20260905152633 105 0.0 0.0 0.00 0.00 0.00 26 1014.5
20260905151633 105 0.0 0.0 0.00 0.00 0.00 28 1014.6
20260905150633 104 0.0 0.0 0.00 0.00 0.00 29 1014.8
20260905145633 104 0.0 0.0 0.00 0.00 0.00 29 1014.7
20260905144633 106 0.0 0.0 0.00 0.00 0.00 28 1014.7
20260905143633 104 0.0 0.0 0.00 0.00 0.00 32 1015.1
20260905142633 103 0.0 0.0 0.00 0.00 0.00 32 1015.2
20260905141633 104 0.0 0.0 0.00 0.00 0.00 31 1015.2
20260905140633 102 0.0 0.0 0.00 0.00 0.00 33 1015.5
20260905135633 103 0.0 0.0 0.00 0.00 0.00 31 1015.3
20260905134633 103 0.0 0.0 0.00 0.00 0.00 29 1015.3
20260905133633 104 0.0 0.0 0.00 0.00 0.00 29 1015.4
20260905132633 106 0.0 0.0 0.00 0.00 0.00 29 1015.3
20260905131633 105 0.0 0.0 0.00 0.00 0.00 29 1015.5
20260905130633 102 0.0 0.0 0.00 0.00 0.00 30 1015.8
20260905125633 101 0.0 0.0 0.00 0.00 0.00 31 1015.7
20260905124633 101 0.0 0.0 0.00 0.00 0.00 30 1015.9
20260905123633 102 0.0 0.0 0.00 0.00 0.00 28 1015.8
20260905122633 103 0.0 0.0 0.00 0.00 0.00 28 1015.8
20260905121633 105 0.0 0.0 0.00 0.00 0.00 29 1015.7
20260905120633 104 0.0 0.0 0.00 0.00 0.00 29 1015.9
20260905115633 104 0.0 0.0 0.00 0.00 0.00 29 1016.0
20260905114633 102 0.0 0.0 0.00 0.00 0.00 31 1016.4
20260905113633 104 0.0 0.0 0.00 0.00 0.00 29 1016.3
20260905112633 103 0.0 0.0 0.00 0.00 0.00 29 1016.5
20260905111633 102 0.0 0.0 0.00 0.00 0.00 29 1016.5
20260905110633 103 0.0 0.0 0.00 0.00 0.00 29 1016.5
20260905105633 104 0.0 0.0 0.00 0.00 0.00 25 1016.6
20260905104633 104 0.0 0.0 0.00 0.00 0.00 26 1016.6
20260905103633 102 0.0 0.0 0.00 0.00 0.00 27 1016.9
20260905102633 101 0.0 0.0 0.00 0.00 0.00 28 1016.9
20260905101633 98 0.0 0.0 0.00 0.00 0.00 36 1017.3
20260905100633 96 0.0 0.0 0.00 0.00 0.00 37 1017.4
20260905095633 97 0.0 0.0 0.00 0.00 0.00 33 1017.4
20260905094633 95 0.0 0.0 0.00 0.00 0.00 35 1017.4
20260905093633 93 0.0 0.0 0.00 0.00 0.00 39 1017.4
20260905092633 92 0.0 0.0 0.00 0.00 0.00 39 1017.3
20260905091633 94 0.0 0.0 0.00 0.00 0.00 37 1017.2
20260905090633 94 0.0 0.0 0.00 0.00 0.00 39 1017.2
20260905085633 92 0.0 0.0 0.00 0.00 0.00 42 1017.5
20260905084633 91 0.0 0.0 0.00 0.00 0.00 43 1017.5
20260905083633 89 0.0 0.0 0.00 0.00 0.00 49 1017.7
20260905082633 88 0.0 0.0 0.00 0.00 0.00 52 1017.7
20260905081633 84 0.0 0.0 0.00 0.00 0.00 57 1017.9
20260905080633 84 0.0 0.0 0.00 0.00 0.00 49 1017.9
20260905075633 83 0.0 0.0 0.00 0.00 0.00 64 1017.9
20260905074633 83 0.0 0.0 0.00 0.00 0.00 60 1018.0
20260905073633 82 0.0 0.0 0.00 0.00 0.00 56 1017.9